Location: Czekanka
(50.4925°N, 19.2643°E)
Time: 06:58:03
(UTC+00:00)

SL-16 R/B - Pass Details

Date: 20 September 2024
Orbit: 842 x 846 km, 71.0° (Epoch: 05 October)

Event Time Altitude Azimuth Distance (km) Brightness Sun altitude
Rises 18:48:26 0° 214° (SW) 3,394 5.4 -19.8°
Reaches altitude 10° 18:50:53 10° 217° (SW) 2,462 4.7 -20.1°
Maximum altitude 18:56:31 72° 301° (WNW) 891 2.4 -20.9°
Drops below altitude 10° 19:02:12 10° 27° (NNE) 2,475 4.7 -21.7°
Sets 19:04:41 0° 29° (NNE) 3,413 5.4 -22.0°
